When you browse on this site, cookies collect data to enhance your experience and personalize the content and advertising you see.
Visit our Privacy Policy to learn more. By continuing to use the site, you agree to this use of cookies and data.
  • In Österreich
  • Länderverzeichnis
  • Für 7 Tage
  • Wassertemperatur
  • Satellitenkarten
  • Wetterkarte
  • News
  • Widgets
  • user-avatar
    Anmelden

    Stündliche Wetter Tarsus

    Heute, 24 April, Mittwoch

    Zeit Temperatur Niederschläge Wind Luftdruck Luftfeuchtigkeit
    00:00 +13°C° 0 mm 1 m/S 767 mmHg 59%
    01:00 +13°C° 0 mm 1 m/S 767 mmHg 59%
    02:00 +13°C° 0 mm 2 m/S 767 mmHg 57%
    03:00 +12°C° 0 mm 2 m/S 767 mmHg 54%
    04:00 +12°C° 0 mm 2 m/S 768 mmHg 52%
    05:00 +12°C° 0 mm 2 m/S 768 mmHg 49%
    06:00 +14°C° 0 mm 2 m/S 768 mmHg 45%
    07:00 +17°C° 0 mm 2 m/S 767 mmHg 41%
    08:00 +19°C° 0 mm 2 m/S 767 mmHg 37%
    09:00 +20°C° 0 mm 2 m/S 767 mmHg 34%
    10:00 +23°C° 0 mm 2 m/S 767 mmHg 32%
    11:00 +24°C° 0 mm 2 m/S 767 mmHg 30%
    12:00 +24°C° 0 mm 3 m/S 767 mmHg 29%
    13:00 +25°C° 0 mm 3 m/S 767 mmHg 29%
    14:00 +25°C° 0 mm 4 m/S 766 mmHg 29%
    15:00 +23°C° 0 mm 4 m/S 766 mmHg 32%
    16:00 +22°C° 0 mm 4 m/S 766 mmHg 35%
    17:00 +21°C° 0 mm 4 m/S 766 mmHg 38%
    18:00 +19°C° 0 mm 3 m/S 765 mmHg 43%
    19:00 +18°C° 0 mm 2 m/S 765 mmHg 48%
    20:00 +16°C° 0 mm 1 m/S 765 mmHg 53%
    21:00 +16°C° 0 mm 1 m/S 766 mmHg 52%
    22:00 +15°C° 0 mm 1 m/S 766 mmHg 52%
    23:00 +15°C° 0 mm 1 m/S 766 mmHg 52%

    Morgen, 25 April, Donnerstag

    Zeit Temperatur Niederschläge Wind Luftdruck Luftfeuchtigkeit
    00:00 +15°C° 0 mm 1 m/S 766 mmHg 52%
    01:00 +15°C° 0 mm 1 m/S 766 mmHg 53%
    02:00 +14°C° 0 mm 1 m/S 765 mmHg 54%
    03:00 +14°C° 0 mm 1 m/S 765 mmHg 54%
    04:00 +14°C° 0 mm 1 m/S 765 mmHg 55%
    05:00 +14°C° 0 mm 1 m/S 765 mmHg 56%
    06:00 +16°C° 0 mm 1 m/S 765 mmHg 50%
    07:00 +20°C° 0 mm 1 m/S 765 mmHg 45%
    08:00 +22°C° 0 mm 1 m/S 765 mmHg 40%
    09:00 +23°C° 0 mm 2 m/S 765 mmHg 37%
    10:00 +25°C° 0 mm 2 m/S 765 mmHg 35%
    11:00 +26°C° 0 mm 3 m/S 764 mmHg 33%
    12:00 +27°C° 0 mm 3 m/S 764 mmHg 33%
    13:00 +27°C° 0 mm 4 m/S 764 mmHg 33%
    14:00 +27°C° 0 mm 4 m/S 763 mmHg 32%
    15:00 +26°C° 0 mm 4 m/S 763 mmHg 35%
    16:00 +25°C° 0 mm 4 m/S 763 mmHg 37%
    17:00 +24°C° 0 mm 3 m/S 762 mmHg 40%
    18:00 +21°C° 0 mm 2 m/S 762 mmHg 43%
    19:00 +20°C° 0 mm 2 m/S 762 mmHg 47%
    20:00 +19°C° 0 mm 1 m/S 763 mmHg 50%
    21:00 +19°C° 0 mm 1 m/S 763 mmHg 51%
    22:00 +19°C° 0 mm 1 m/S 763 mmHg 51%
    23:00 +16°C° 0 mm 0 m/S 763 mmHg 52%

    übermorgen, 26 April, Freitag

    Zeit Temperatur Niederschläge Wind Luftdruck Luftfeuchtigkeit
    00:00 +18°C° 0 mm 1 m/S 762 mmHg 52%
    01:00 +18°C° 0 mm 1 m/S 762 mmHg 52%
    02:00 +16°C° 0 mm 1 m/S 762 mmHg 53%
    03:00 +16°C° 0 mm 1 m/S 762 mmHg 54%
    04:00 +16°C° 0 mm 1 m/S 762 mmHg 55%
    05:00 +16°C° 0 mm 1 m/S 761 mmHg 56%
    06:00 +19°C° 0 mm 1 m/S 761 mmHg 52%
    07:00 +21°C° 0 mm 1 m/S 762 mmHg 47%
    08:00 +24°C° 0 mm 1 m/S 762 mmHg 43%
    09:00 +25°C° 0 mm 2 m/S 761 mmHg 40%
    10:00 +26°C° 0 mm 2 m/S 761 mmHg 38%
    11:00 +28°C° 0 mm 2 m/S 761 mmHg 36%
    12:00 +28°C° 0 mm 3 m/S 761 mmHg 36%
    13:00 +28°C° 0 mm 3 m/S 760 mmHg 36%
    14:00 +28°C° 0 mm 4 m/S 760 mmHg 36%
    15:00 +27°C° 0 mm 4 m/S 760 mmHg 38%
    16:00 +26°C° 0 mm 3 m/S 759 mmHg 40%
    17:00 +25°C° 0 mm 3 m/S 759 mmHg 43%
    18:00 +24°C° 0 mm 2 m/S 759 mmHg 47%
    19:00 +22°C° 0 mm 1 m/S 760 mmHg 51%
    20:00 +20°C° 0 mm 1 m/S 760 mmHg 55%
    21:00 +20°C° 0 mm 1 m/S 760 mmHg 55%
    22:00 +20°C° 0 mm 1 m/S 760 mmHg 55%
    23:00 +20°C° 0 mm 1 m/S 760 mmHg 56%

    27 April, Samstag

    Zeit Temperatur Niederschläge Wind Luftdruck Luftfeuchtigkeit
    00:00 +20°C° 0 mm 1 m/S 760 mmHg 57%
    01:00 +20°C° 0 mm 1 m/S 759 mmHg 58%
    02:00 +19°C° 0 mm 1 m/S 759 mmHg 59%
    03:00 +18°C° 0 mm 2 m/S 759 mmHg 60%
    04:00 +18°C° 0 mm 2 m/S 759 mmHg 62%
    05:00 +18°C° 0 mm 2 m/S 759 mmHg 63%
    06:00 +19°C° 0.1 mm 2 m/S 759 mmHg 60%
    07:00 +21°C° 0.1 mm 2 m/S 760 mmHg 57%
    08:00 +23°C° 0.1 mm 2 m/S 760 mmHg 54%
    09:00 +23°C° 0.1 mm 2 m/S 760 mmHg 52%
    10:00 +24°C° 0.1 mm 3 m/S 760 mmHg 50%
    11:00 +24°C° 0.1 mm 3 m/S 760 mmHg 49%
    12:00 +25°C° 0 mm 3 m/S 759 mmHg 46%
    13:00 +26°C° 0 mm 3 m/S 759 mmHg 43%
    14:00 +27°C° 0 mm 3 m/S 758 mmHg 40%
    15:00 +27°C° 0 mm 2 m/S 758 mmHg 40%
    16:00 +27°C° 0 mm 2 m/S 758 mmHg 41%
    17:00 +26°C° 0 mm 1 m/S 758 mmHg 42%
    18:00 +24°C° 0 mm 1 m/S 758 mmHg 47%
    19:00 +23°C° 0 mm 1 m/S 759 mmHg 52%
    20:00 +21°C° 0 mm 1 m/S 759 mmHg 57%
    21:00 +20°C° 0 mm 1 m/S 759 mmHg 58%
    22:00 +20°C° 0 mm 1 m/S 759 mmHg 58%
    23:00 +19°C° 0 mm 2 m/S 759 mmHg 59%

    28 April, Sonntag

    Zeit Temperatur Niederschläge Wind Luftdruck Luftfeuchtigkeit
    00:00 +18°C° 0 mm 2 m/S 759 mmHg 60%
    01:00 +19°C° 0 mm 1 m/S 758 mmHg 60%
    02:00 +19°C° 0 mm 1 m/S 758 mmHg 61%
    03:00 +18°C° 0 mm 1 m/S 758 mmHg 61%
    04:00 +17°C° 0 mm 2 m/S 758 mmHg 62%
    05:00 +17°C° 0 mm 2 m/S 758 mmHg 62%
    06:00 +19°C° 0 mm 2 m/S 758 mmHg 56%
    07:00 +21°C° 0 mm 2 m/S 758 mmHg 50%
    08:00 +25°C° 0 mm 2 m/S 759 mmHg 43%
    09:00 +26°C° 0 mm 2 m/S 758 mmHg 41%
    10:00 +27°C° 0 mm 2 m/S 758 mmHg 38%
    11:00 +28°C° 0 mm 2 m/S 758 mmHg 36%
    12:00 +29°C° 0 mm 2 m/S 758 mmHg 36%
    13:00 +29°C° 0 mm 3 m/S 757 mmHg 36%
    14:00 +29°C° 0 mm 3 m/S 757 mmHg 36%
    15:00 +28°C° 0.1 mm 3 m/S 757 mmHg 40%
    16:00 +27°C° 0.1 mm 3 m/S 757 mmHg 43%
    17:00 +26°C° 0.1 mm 3 m/S 757 mmHg 47%
    18:00 +24°C° 0.1 mm 2 m/S 758 mmHg 52%
    19:00 +23°C° 0.1 mm 1 m/S 758 mmHg 57%
    20:00 +21°C° 0.1 mm 1 m/S 759 mmHg 63%
    21:00 +20°C° 0 mm 1 m/S 759 mmHg 65%
    22:00 +18°C° 0 mm 0 m/S 759 mmHg 67%
    23:00 +17°C° 0 mm 0 m/S 759 mmHg 69%

    29 April, Montag

    Zeit Temperatur Niederschläge Wind Luftdruck Luftfeuchtigkeit
    00:00 +19°C° 0 mm 1 m/S 758 mmHg 70%
    01:00 +19°C° 0 mm 1 m/S 758 mmHg 71%
    02:00 +18°C° 0 mm 1 m/S 758 mmHg 72%
    03:00 +18°C° 0 mm 1 m/S 758 mmHg 73%
    04:00 +18°C° 0 mm 1 m/S 758 mmHg 75%
    05:00 +16°C° 0 mm 1 m/S 758 mmHg 76%
    06:00 +19°C° 0 mm 1 m/S 758 mmHg 68%
    07:00 +21°C° 0 mm 1 m/S 758 mmHg 61%
    08:00 +24°C° 0 mm 1 m/S 758 mmHg 53%
    09:00 +25°C° 0 mm 2 m/S 758 mmHg 49%
    10:00 +26°C° 0 mm 2 m/S 758 mmHg 46%
    11:00 +27°C° 0 mm 2 m/S 758 mmHg 42%
    12:00 +28°C° 0 mm 3 m/S 758 mmHg 42%
    13:00 +28°C° 0 mm 3 m/S 757 mmHg 41%
    14:00 +28°C° 0 mm 4 m/S 757 mmHg 41%
    15:00 +27°C° 0 mm 3 m/S 757 mmHg 43%
    16:00 +26°C° 0 mm 3 m/S 757 mmHg 45%
    17:00 +25°C° 0 mm 3 m/S 757 mmHg 47%
    18:00 +24°C° 0 mm 2 m/S 757 mmHg 53%
    19:00 +22°C° 0 mm 1 m/S 757 mmHg 59%
    20:00 +18°C° 0 mm 0 m/S 758 mmHg 65%
    21:00 +20°C° 0 mm 1 m/S 758 mmHg 65%
    22:00 +20°C° 0 mm 1 m/S 758 mmHg 64%
    23:00 +19°C° 0 mm 1 m/S 758 mmHg 63%
    Mehr zeigen